Location: Pinon Hills
(34.4429°N, 117.6403°W)
Time: 18:45:43
(UTC-08:00)

XW-2F - Pass Details

Date: 23 October 2019
Orbit: 502 x 524 km, 97.5° (Epoch: 16 November)

Event Time Altitude Azimuth Distance (km) Brightness Sun altitude
Rises 06:24:19 0° 22° (NNE) 2,604 ? -8.6°
Reaches altitude 10° 06:26:32 10° 31° (NNE) 1,716 ? -8.1°
Maximum altitude 06:29:56 34° 98° (E) 841 ? -7.4°
Drops below altitude 10° 06:33:19 10° 165° (SSE) 1,710 ? -6.8°
Sets 06:35:31 0° 174° (S) 2,593 ? -6.3°
